Well Details
Well Information

03721455

Standard Sesnon

44A

Los Angeles [037]

2

Southern California Gas Company [S4700]

Aliso Canyon [010]

Any Area [00]

28

03N

16W

SB

Active

GS, OG


gps

83

34.312446

-118.56551

map

Well Records

File Name Type Size Modified on
 
 03721455_DATA_11-19-07.pdf PDF 76.00 MB 10/10/2017
 03721455_Cement Bond Log Variable Density Log Gamma Ray CCL_19-4-2017.tif TIF 45.00 MB 7/26/2017
 03721455_SS 44A_PTEST_10-06-2016.xls Excel 128.00 KB 10/6/2016
 03721455_SS 44A_PTEST_09-09-2016.xls Excel 127.00 KB 9/12/2016
 03721455_v.pdf PDF 240.00 KB 8/8/2016
 03721455.pdf PDF 156.00 KB 8/4/2016
 03721455_SS 44A_PTEST_07-22-2016.xls Excel 114.00 KB 8/3/2016
 03721455_SS 44A_Noise_04-13-2016.csv csv 19.00 KB 4/15/2016
 03721455_SS 44A_Noise_04-13-2016.pdf PDF 3.00 MB 4/15/2016
 03721455_SS 44A_Noise_04-13-2016.las Text 1.00 MB 4/15/2016
 03721455_SS 44A_Temp_04-13-2016.pdf PDF 676.00 KB 4/15/2016
 03721455_Ultrasonic Imaging Tool Gamma Ray-CCL CBL-VDL_07-22-2014.tif TIF 367.00 MB 2/5/2015
 03721455_Survey_Temperature_09-27-2013(SS44A).pdf PDF 304.00 KB 10/11/2013
 03721455_Survey_Noise_06-20-2012(SS44A).pdf PDF 3.00 MB 7/2/2012
 03721455_Survey_Temperature_06-07-2012(SS44A).pdf PDF 105.00 KB 6/15/2012
 03721455_Survey_Noise_06-08-2012(SS44A).pdf PDF 2.00 MB 6/13/2012
 03721455_Survey_Temperature_08-10-2011.pdf PDF 94.00 KB 3/15/2012
 03721455_Survey_Temperature_08-10-2011(SS44A).pdf PDF 94.00 KB 8/18/2011
 03721455_Survey_Temperature_06-14-2010(SS44A).pdf PDF 41.00 KB 6/29/2010
 03721455_TEMPERATURE_06-14-2010.pdf PDF 41.00 KB 6/29/2010
 03721455_Temperature_7-25-2006.tif TIF 57.00 KB 6/24/2009
 03721455_Temperature_7-26-2004.tif TIF 63.00 KB 6/24/2009
 03721455_Pressure Survey_7-25-2006.tif TIF 85.00 KB 6/24/2009
 03721455_Pressure Survey_8-4-2005.tif TIF 67.00 KB 6/20/2009
 03721455_Temperature_8-4-2005.tif TIF 55.00 KB 6/20/2009
 03721455_PRESSURE_TEMPERATURE_12-15-2008.pdf PDF 43.00 KB 12/31/2008
 03721455_Static Temperature_8-8-2001.tif TIF 60.00 KB 12/22/2007
 03721455_Static Temperature_2-11-2000.tif TIF 139.00 KB 12/22/2007
 03721455_Static Temperature_11-16-1998.tif TIF 182.00 KB 12/22/2007
 03721455_Static Temperature_7-22-1994.tif TIF 182.00 KB 12/22/2007
 03721455_Static Temperature_8-3-1993.tif TIF 237.00 KB 12/22/2007
 03721455_Static Temperature_10-8-1992.tif TIF 193.00 KB 12/22/2007
 03721455_Static Temperature_8-28-1991.tif TIF 188.00 KB 12/22/2007
 03721455_Static Temperature_9-24-1989.tif TIF 182.00 KB 12/22/2007
 03721455_Compensated Density Log_10-24-1974.tif TIF 561.00 KB 8/11/2007
 03721455_Micro-Seismogram Log-Cased Hole_10-13-1974.tif TIF 2.00 MB 8/11/2007
 03721455_Sidewall Neutron Log_10-24-1974.tif TIF 424.00 KB 8/11/2007
 03721455_Compensated Acoustic Velocity Log_10-24-1974.tif TIF 465.00 KB 8/11/2007
 03721455_Computer Analyzed Log_10-24-1974.tif TIF 420.00 KB 6/6/2007
 03721455_Induction-Electrical Log_10-24-1974.tif TIF 1.00 MB 6/6/2007


Production Data


Date Oil(bbl) Water(bbl) Gas(Mcf) Days Producing Gravity Csg Tbg BTU MO Disp PWT Status Well Type Status Pool Code Sum Row
Date Oil(bbl) Water(bbl) Gas(Mcf) Days Producing Gravity Csg Tbg BTU MO Disp PWT Status Well Type Status Pool Code Sum Row


Injection Data


Date Water/Steam(bbl) Gas/Air(Mcf) Days Injecting Pressure Water Source Water Kind PWT Status Well Type Status Pool Code Sum Row
Date Water/Steam(bbl) Gas/Air(Mcf) Days Injecting Pressure Water Source Water Kind PWT Status Well Type Status Pool Code Sum Row



Production Charts



Injection Charts